[[{"header":{"parameterUnit":"m.s-1","parameterCategory":1,"la1":30.2991,"la2":30.254,"lo1":-89.0895,"lo2":-89.0444,"dy":0.0017,"dx":0.0017,"nx":28,"ny":28,"refTime":"2023-10-03T21:00:00:Z","depth":0,"parameterNumber":2,"parameterNumberName":"U-component_of_WINDS"},"data":[0,0,0,0,0,0,0,0,0,0,0,0,0,0,0,0,0,0,0,0,0,0,0,0,0,0,0,0,0,0,0,0,0,0,0,0,0,0,0,0,0,0,0,0,0,0,0,0,0,0,0,0,0,0,0,0,0,0,-5.6628,-5.6628,0,-5.6591,-5.659,-5.659,-5.6435,-5.6431,-5.6428,-5.6424,-5.6387,-5.639,-5.6392,0,0,0,0,0,0,0,0,0,0,0,0,0,-5.6568,-5.657,-5.6628,-5.6628,-5.6627,-5.6591,-5.659,-5.659,-5.6435,-5.6431,-5.6427,-5.6423,-5.6387,-5.6389,-5.6392,0,0,0,0,0,0,0,0,0,0,0,0,0,-5.6569,-5.6571,-5.6628,-5.6546,-5.6538,-5.6591,-5.659,-5.659,-5.6436,-5.6431,-5.6426,-5.6421,-5.6386,-5.6389,-5.6393,-5.6523,0,0,-5.6404,-5.6405,0,0,0,0,0,0,0,0,-5.6569,-5.6572,-5.6558,-5.6552,-5.6543,-5.6512,-5.6556,-5.6567,-5.6438,-5.6475,-5.6424,-5.6418,-5.6433,-5.6433,-5.6437,-5.6521,-5.6519,-5.6404,-5.6406,-5.6408,-5.6409,0,0,0,0,0,0,0,-5.657,-5.6572,-5.6613,-5.6558,-5.6549,-5.6512,-5.6506,-5.6557,-5.6485,-5.6471,-5.646,-5.6458,-5.6428,-5.6434,-5.6435,-5.6519,-5.6404,-5.6407,-5.6409,-5.6411,-5.6708,-5.6714,0,0,0,0,0,0,-5.6581,-5.6573,-5.6614,-5.6612,-5.6543,-5.6517,-5.651,-5.6527,-5.6484,-5.6472,-5.6462,-5.6451,-5.6431,-5.6432,-5.6434,-5.6582,-5.6408,-5.6411,-5.6413,-5.6703,-5.6709,-5.6716,0,0,0,0,0,0,-5.658,-5.6586,-5.6616,-5.659,-5.6591,-5.6524,-5.6544,-5.653,-5.6535,-5.6477,-5.6464,-5.6482,-5.6427,-5.6429,-5.6502,-5.6579,-5.6412,-5.6416,-5.6696,-5.6705,-5.6713,-5.6882,0,0,0,0,0,0,-5.6579,-5.6587,-5.6634,-5.6592,-5.6593,-5.6684,-5.6549,-5.6533,-5.6542,-5.6526,-5.6492,-5.6481,-5.6423,-5.6497,-5.6505,-5.6581,-5.6418,-5.6688,-5.67,-5.671,-5.6869,-5.6895,-5.6918,0,0,0,0,0,-5.6578,-5.6683,-5.6638,-5.6643,-5.6651,-5.6689,-5.6689,-5.662,-5.6549,-5.6597,-5.656,-5.6482,-5.657,-5.6506,-5.6514,-5.6592,-5.6683,-5.6696,-5.6709,-5.6858,-5.689,-5.6917,0,0,0,0,0,0,-5.6736,-5.6676,-5.6624,-5.672,-5.6711,-5.6663,-5.672,-5.6656,-5.6667,-5.6652,-5.6566,-5.6559,-5.6645,-5.6626,-5.6556,-5.6716,-5.6614,-5.6629,-5.6725,-5.6754,-5.6778,-5.678,-5.6421,0,0,0,0,0,-5.6783,-5.6818,-5.6764,-5.6853,-5.6852,-5.6788,-5.6802,-5.6749,-5.6736,-5.6732,-5.67,-5.6691,-5.6716,-5.6735,-5.6755,-5.6867,-5.6857,-5.6925,-5.6949,-5.6969,-5.6983,-5.7041,-5.707,-5.6758,-5.6758,-5.6758,0,0,-5.6878,-5.685,-5.6877,-5.6885,-5.6871,-5.6911,-5.6785,-5.6832,-5.686,-5.6739,-5.6805,-5.6783,-5.6767,-5.6861,-5.69,-5.6847,-5.7067,-5.6986,-5.7003,-5.7005,-5.7057,-5.7087,-5.7113,-5.6767,-5.6766,-5.6764,0,0,-5.7071,-5.7054,-5.7126,-5.7116,-5.7098,-5.7055,-5.7074,-5.7036,-5.7016,-5.7082,-5.6992,-5.7026,-5.7072,-5.7064,-5.7067,-5.7262,-5.7191,-5.7272,-5.7398,-5.7455,-5.748,-5.7501,-5.757,-5.7596,-5.7286,-5.7286,-5.7286,0,-5.7191,-5.7246,-5.7172,-5.7225,-5.7231,-5.7125,-5.7198,-5.7192,-5.7182,-5.7189,-5.7131,-5.7187,-5.7169,-5.7259,-5.7308,-5.7314,-5.7331,-5.7273,-5.7482,-5.7503,-5.7522,-5.7586,-5.7613,-5.7296,-5.7295,-5.7294,-5.7293,0,-5.7395,-5.7435,-5.7497,-5.749,-5.7503,-5.7567,-5.7503,-5.7526,-5.7474,-5.7438,-5.7508,-5.7483,-5.7497,-5.7515,-5.7465,-5.76,-5.7567,-5.7498,-5.7392,-5.7563,-5.7622,-5.7646,-5.731,-5.7306,-5.7303,-5.7301,0,0,-5.7683,-5.7637,-5.766,-5.7656,-5.7631,-5.766,-5.772,-5.7734,-5.7755,-5.7754,-5.7801,-5.7845,-5.778,-5.7783,-5.7732,-5.7783,-5.7939,-5.7706,-5.7705,-5.7749,-5.8086,-5.8137,-5.8167,-5.7893,-5.7898,-5.7901,-5.8086,0,-5.7866,-5.7963,-5.79,-5.8008,-5.8044,-5.7946,-5.7998,-5.7989,-5.7958,-5.7986,-5.7952,-5.7983,-5.7896,-5.7898,-5.7944,-5.791,-5.8005,-5.7896,-5.7936,-5.7939,-5.794,-5.8197,-5.8251,-5.8427,-5.8109,-5.8113,-5.8116,0,-5.8091,-5.8099,-5.8212,-5.818,-5.8193,-5.8241,-5.8249,-5.8277,-5.8265,-5.8239,-5.8245,-5.8181,-5.8239,-5.8138,-5.8216,-5.8144,-5.8157,-5.8144,-5.8149,-5.8147,-5.8036,-5.8201,-5.8481,-5.8507,-5.8152,-5.8149,-5.8146,0,-5.8288,-5.8328,-5.84,-5.84,-5.8366,-5.8402,-5.8389,-5.8372,-5.8386,-5.8394,-5.8402,-5.8417,-5.8425,-5.8439,-5.8382,-5.8314,-5.8468,-5.8362,-5.8448,-5.8449,-5.8481,-5.848,-5.8765,-5.8495,-5.8495,-5.8494,-5.8494,0,-5.8497,-5.8569,-5.8488,-5.8532,-5.8611,-5.8539,-5.8619,-5.8596,-5.8583,-5.8621,-5.8539,-5.8577,-5.85,-5.8531,-5.8487,-5.8559,-5.8563,-5.8544,-5.8531,-5.855,-5.8552,-5.8555,-5.8541,-5.8501,-5.85,-5.8498,-5.8497,0,-5.8728,-5.8677,-5.8749,-5.8712,-5.8705,-5.8764,-5.8732,-5.8772,-5.8738,-5.8788,-5.8796,-5.8742,-5.8774,-5.872,-5.8745,-5.8716,-5.8815,-5.8784,-5.8819,-5.8809,-5.8896,-5.8888,-5.9191,-5.9227,-5.8937,-5.894,-5.8942,0,-5.8863,-5.8916,-5.8886,-5.8906,-5.8899,-5.8932,-5.8946,-5.8879,-5.8896,-5.8889,-5.893,-5.8956,-5.8972,-5.903,-5.8993,-5.9013,-5.898,-5.9086,-5.8983,-5.9001,-5.898,-5.8977,-5.8981,-5.9106,-5.9109,-5.9112,-5.9115,0,-5.9108,-5.9081,-5.9103,-5.9119,-5.9137,-5.9146,-5.9148,-5.9169,-5.9099,-5.9123,-5.9156,-5.9169,-5.9196,-5.9223,-5.9235,-5.9222,-5.9157,-5.9148,-5.9168,-5.9187,-5.9204,-5.9194,-5.8874,-5.914,-5.9138,-5.9136,-5.9134,-5.9133,-5.9294,-5.9337,-5.9323,-5.9351,-5.9347,-5.9352,-5.9388,-5.9359,-5.9385,-5.9401,-5.9361,-5.9404,-5.9393,-5.9402,-5.9398,-5.943,-5.9384,-5.9414,-5.9421,-5.9429,-5.9442,-5.9202,-5.9432,-5.9432,-5.9431,-5.943,-5.943,0,-5.9533,-5.952,-5.9547,-5.9554,-5.9577,-5.9516,-5.9516,-5.9539,-5.9578,-5.9574,-5.9593,-5.9631,-5.9658,-5.9625,-5.9645,-5.9678,-5.9649,-5.9686,-5.9681,-5.9679,-5.9483,-5.9462,-5.9709,-5.9709,-5.9709,-5.9709,-5.9709,-5.9709,-5.966,-5.973,-5.9702,-5.977,-5.9756,-5.9797,-5.9803,-5.9807,-5.9804,-5.985,-5.9872,-5.9851,-5.9836,-5.9855,-5.9877,-5.9867,-5.9878,-5.9925,-5.9904,-5.9721,-5.9693,-5.9667,-5.9647,-5.9928,-5.9929,-6.0097,-6.0099,-6.01]},{"header":{"parameterUnit":"m.s-1","parameterCategory":1,"la1":30.2991,"la2":30.254,"lo1":-89.0895,"lo2":-89.0444,"dy":0.0017,"dx":0.0017,"nx":28,"ny":28,"refTime":"2023-10-03T21:00:00:Z","depth":0,"parameterNumber":3,"parameterNumberName":"V-component_of_WINDS"},"data":[0,0,0,0,0,0,0,0,0,0,0,0,0,0,0,0,0,0,0,0,0,0,0,0,0,0,0,0,0,0,0,0,0,0,0,0,0,0,0,0,0,0,0,0,0,0,0,0,0,0,0,0,0,0,0,0,0,0,2.2523,2.2522,0,2.2492,2.2492,2.2491,2.2523,2.2525,2.2526,2.2527,2.2488,2.2485,2.2483,0,0,0,0,0,0,0,0,0,0,0,0,0,2.2603,2.2601,2.2523,2.2522,2.2522,2.2492,2.2492,2.2491,2.2523,2.2525,2.2526,2.2528,2.2488,2.2486,2.2483,0,0,0,0,0,0,0,0,0,0,0,0,0,2.2569,2.2601,2.2523,2.2534,2.2535,2.2492,2.2492,2.2491,2.2523,2.2525,2.2527,2.2528,2.2489,2.2486,2.2483,2.2424,0,0,2.2472,2.2471,0,0,0,0,0,0,0,0,2.2571,2.2566,2.2533,2.2533,2.2534,2.2514,2.2506,2.2468,2.2522,2.2527,2.2527,2.2529,2.2494,2.2491,2.248,2.2422,2.2421,2.2472,2.247,2.2469,2.2468,0,0,0,0,0,0,0,2.2573,2.2568,2.251,2.2532,2.2533,2.2539,2.2537,2.2499,2.25,2.2527,2.2529,2.2526,2.2495,2.2484,2.248,2.242,2.2472,2.2469,2.2467,2.2466,2.2314,2.2312,0,0,0,0,0,0,2.2575,2.257,2.2511,2.2509,2.2558,2.2536,2.2533,2.2518,2.2501,2.25,2.2524,2.2527,2.2488,2.2484,2.2478,2.2409,2.2469,2.2466,2.2464,2.2316,2.2313,2.2311,0,0,0,0,0,0,2.2577,2.257,2.2512,2.254,2.2533,2.2533,2.2516,2.2517,2.2505,2.2499,2.2498,2.2513,2.249,2.2483,2.2438,2.2408,2.2464,2.2461,2.2318,2.2315,2.2312,2.227,0,0,0,0,0,0,2.2579,2.257,2.2549,2.254,2.2532,2.2474,2.2514,2.2515,2.2501,2.2504,2.2488,2.2487,2.2491,2.2443,2.2435,2.2405,2.2458,2.2321,2.2317,2.2313,2.2274,2.2266,2.2259,0,0,0,0,0,2.2582,2.2536,2.2548,2.2541,2.2506,2.2473,2.2468,2.2475,2.2498,2.2476,2.2472,2.2487,2.2414,2.2438,2.2429,2.2397,2.2322,2.2318,2.2313,2.2277,2.2267,2.2259,0,0,0,0,0,0,2.2539,2.2535,2.2548,2.2498,2.2486,2.2478,2.245,2.2465,2.2443,2.2447,2.2455,2.2451,2.2404,2.2397,2.2424,2.2341,2.2371,2.2365,2.2347,2.2337,2.233,2.2332,2.2456,0,0,0,0,0,2.2525,2.25,2.2497,2.2454,2.2447,2.245,2.2436,2.2443,2.2429,2.2423,2.2416,2.24,2.2374,2.2355,2.233,2.2274,2.227,2.2248,2.224,2.2234,2.2227,2.2197,2.2187,2.2296,2.2296,2.2296,0,0,2.2492,2.2488,2.2471,2.2445,2.2436,2.2409,2.2445,2.2414,2.2393,2.2418,2.2376,2.237,2.2353,2.2302,2.2279,2.2294,2.2197,2.2228,2.2223,2.222,2.2191,2.2181,2.2172,2.2293,2.2293,2.2294,0,0,2.242,2.2415,2.2379,2.237,2.2358,2.2361,2.2352,2.2343,2.2341,2.23,2.2318,2.2293,2.2246,2.2234,2.2221,2.2148,2.2161,2.214,2.2099,2.2069,2.2061,2.2053,2.2026,2.2016,2.2134,2.2133,2.2133,0,2.2381,2.2343,2.2357,2.2326,2.2314,2.2339,2.2301,2.2292,2.227,2.226,2.2279,2.2223,2.2213,2.216,2.2143,2.2132,2.2121,2.214,2.2061,2.2054,2.2047,2.2021,2.2011,2.2131,2.2131,2.2131,2.2132,0,2.2296,2.2269,2.2241,2.2224,2.2209,2.2174,2.2181,2.2164,2.2174,2.2174,2.2132,2.2122,2.2096,2.2084,2.2092,2.2032,2.2042,2.2061,2.2091,2.2034,2.201,2.2,2.2127,2.2128,2.2129,2.2129,0,0,2.2192,2.2187,2.2176,2.2169,2.2159,2.2137,2.2104,2.2082,2.2066,2.2052,2.2023,2.1985,2.2004,2.1989,2.1996,2.1971,2.1913,2.1992,2.1992,2.1977,2.1846,2.1831,2.1819,2.1923,2.1921,2.192,2.1847,0,2.212,2.2065,2.2078,2.2023,2.1998,2.2023,2.1994,2.1984,2.1984,2.1962,2.1961,2.1934,2.196,2.1952,2.1928,2.1925,2.1886,2.1931,2.1894,2.1892,2.1896,2.1807,2.179,2.1722,2.1838,2.1836,2.1835,0,2.2027,2.2012,2.1956,2.1952,2.1942,2.1916,2.1897,2.1876,2.1865,2.1867,2.1853,2.1866,2.1831,2.1865,2.1817,2.1847,2.1833,2.1829,2.1827,2.1822,2.1859,2.1798,2.17,2.169,2.1821,2.1822,2.1823,0,2.1956,2.1922,2.1885,2.1878,2.1872,2.1853,2.1849,2.1841,2.1827,2.181,2.1801,2.178,2.1767,2.1749,2.1755,2.1779,2.1706,2.174,2.1705,2.1704,2.1685,2.1686,2.1583,2.168,2.168,2.168,2.168,0,2.1872,2.1836,2.1853,2.1829,2.179,2.1805,2.1765,2.1764,2.1756,2.1731,2.1751,2.1727,2.1738,2.1714,2.1718,2.1678,2.1672,2.1671,2.1672,2.1668,2.1668,2.1657,2.1661,2.1677,2.1678,2.1679,2.1679,0,2.1785,2.1795,2.1756,2.1755,2.1754,2.1725,2.1723,2.17,2.1704,2.1672,2.1666,2.167,2.1643,2.1649,2.1618,2.1621,2.157,2.1578,2.1574,2.1575,2.1539,2.1542,2.1424,2.1409,2.1517,2.1516,2.1515,0,2.173,2.1704,2.1702,2.1688,2.1684,2.1662,2.1649,2.1663,2.1649,2.1636,2.1614,2.159,2.1572,2.1528,2.1526,2.1503,2.151,2.147,2.1506,2.1503,2.1507,2.1508,2.1505,2.1462,2.1461,2.146,2.1459,0,2.1631,2.1639,2.1621,2.1605,2.1591,2.1578,2.1567,2.1555,2.1568,2.1551,2.1526,2.1512,2.1483,2.1458,2.1438,2.1431,2.1446,2.1448,2.1439,2.1433,2.1432,2.1431,2.1553,2.145,2.1451,2.1452,2.1452,2.1452,2.1558,2.1536,2.1532,2.1512,2.1506,2.1496,2.1476,2.1478,2.1458,2.1438,2.1447,2.1418,2.1408,2.1383,2.1375,2.1351,2.1365,2.1352,2.1348,2.1344,2.1339,2.1438,2.1347,2.1348,2.1348,2.1348,2.1348,0,2.1459,2.1459,2.1441,2.1427,2.1411,2.1431,2.1421,2.1405,2.138,2.1372,2.1355,2.1326,2.1303,2.1301,2.1279,2.126,2.1266,2.1254,2.1254,2.1252,2.1328,2.1338,2.1249,2.1249,2.1249,2.1249,2.1249,2.1249,2.1406,2.137,2.1377,2.1339,2.1338,2.1312,2.1304,2.1295,2.1288,2.1256,2.1239,2.1239,2.1233,2.1211,2.1191,2.1191,2.1181,2.1165,2.1167,2.1237,2.1247,2.1256,2.1266,2.1163,2.1163,2.1093,2.1093,2.1092]}]]